McComb, MS

11:11 PM CDT on May 23, 2017 (GMT -0500)
McComb-Pike County-Lewis

Weather History for KMCB - May, 2014

Change the Weather History Date:

Saturday, May 10, 2014

  Actual Average Record
Temperature  
Mean Temperature 72 °F -  
Max Temperature 84 °F 81 °F 92 °F (1955)
Min Temperature 63 °F 57 °F 43 °F (1961)
Cooling Degree Days 8    
Growing Degree Days 22 (Base 50)    
Moisture  
Dew Point 66 °F    
Average Humidity 84    
Maximum Humidity 97    
Minimum Humidity 62    
Precipitation  
Precipitation 0.01 in - - ()
Sea Level Pressure  
Sea Level Pressure 29.99 in    
Wind  
Wind Speed 7 mph (SSE)    
Max Wind Speed 14 mph    
Max Gust Speed -    
Visibility 9 miles    
Events      
Averages and records for this station are not official NWS values.
T = Trace of Precipitation, MM = Missing Value Source: NWS Daily Summary

Daily Weather History Graph

Daily Weather History Graph

Search for Another Location

Airport or City:

Trip Planner

Search our weather history database for the weather conditions in past years. The results will help you decide how hot, cold, wet, or windy it might be!

Date:

Astronomy

May. 10, 2014 Rise Set
Actual Time 6:09 AM CDT 7:47 PM CDT
Civil Twilight 5:43 AM CDT 8:13 PM CDT
Nautical Twilight 5:11 AM CDT 8:45 PM CDT
Astronomical Twilight 4:38 AM CDT 9:18 PM CDT
Moon 3:58 PM CDT (5/10) 3:25 AM CDT (5/10)
Length of Visible Light 14h 30m
Length of Day
13h 37m
Waxing Gibbous, 82% of the Moon is Illuminated
May 10
Waxing Gibbous
May 14
Full
May 21
Last Quarter
May 28
New
Jun 5
First Quarter

Hourly Weather History & Observations

Time (CDT) Temp. Heat Index Dew Point Humidity Pressure Visibility Wind Dir Wind Speed Gust Speed Precip Events Conditions
12:53 AM 64.9 °F - 63.0 °F 93% 30.02 in 10.0 mi South 9.2 mph - N/A   Partly Cloudy
1:53 AM 64.0 °F - 62.1 °F 93% 30.01 in 10.0 mi South 8.1 mph - N/A   Mostly Cloudy
2:53 AM 64.0 °F - 61.0 °F 90% 29.97 in 10.0 mi SE 5.8 mph - 0.00 in   Mostly Cloudy
3:53 AM 63.0 °F - 61.0 °F 93% 29.97 in 10.0 mi NW 4.6 mph - N/A   Partly Cloudy
4:53 AM 63.0 °F - 61.0 °F 93% 29.99 in 10.0 mi NE 3.5 mph - N/A   Scattered Clouds
6:53 AM 63.0 °F - 61.0 °F 93% 30.00 in 6.0 mi SSE 6.9 mph - N/A   Clear
7:44 AM 64.9 °F - 62.1 °F 90% 30.01 in 10.0 mi SSE 6.9 mph - N/A   Mostly Cloudy
7:53 AM 64.9 °F - 63.0 °F 93% 29.99 in 10.0 mi SE 6.9 mph - N/A   Mostly Cloudy
8:07 AM 64.9 °F - 63.0 °F 93% 30.00 in 10.0 mi SE 8.1 mph - N/A   Overcast
8:53 AM 68.0 °F - 64.9 °F 90% 30.01 in 10.0 mi South 8.1 mph - N/A   Mostly Cloudy
9:16 AM 69.1 °F - 64.9 °F 87% 30.03 in 10.0 mi SSE 5.8 mph - N/A   Scattered Clouds
9:53 AM 70.0 °F - 64.9 °F 84% 30.01 in 10.0 mi South 5.8 mph - N/A   Clear
10:53 AM 73.9 °F - 64.9 °F 73% 30.01 in 10.0 mi South 6.9 mph - N/A   Clear
11:53 AM 78.1 °F - 66.9 °F 68% 30.01 in 10.0 mi South 6.9 mph - N/A   Clear
12:53 PM 81.0 °F 83.3 °F 66.9 °F 62% 30.00 in 10.0 mi South 12.7 mph - N/A   Clear
1:53 PM 82.0 °F 85.5 °F 69.1 °F 65% 29.98 in 10.0 mi SSW 9.2 mph - N/A   Mostly Cloudy
2:53 PM 82.0 °F 85.5 °F 69.1 °F 65% 29.98 in 10.0 mi South 13.8 mph - N/A   Overcast
3:53 PM 82.0 °F 84.9 °F 68.0 °F 62% 29.96 in 10.0 mi South 11.5 mph - N/A   Mostly Cloudy
4:53 PM 81.0 °F 84.1 °F 69.1 °F 67% 29.95 in 10.0 mi South 12.7 mph - N/A   Mostly Cloudy
5:53 PM 81.0 °F 84.1 °F 69.1 °F 67% 29.94 in 10.0 mi South 8.1 mph - N/A   Mostly Cloudy
6:53 PM 77.0 °F - 70.0 °F 79% 29.94 in 10.0 mi SE 5.8 mph - N/A   Clear
7:53 PM 75.9 °F - 70.0 °F 82% 29.96 in 10.0 mi South 4.6 mph - N/A   Clear
8:53 PM 73.0 °F - 70.0 °F 90% 29.98 in 10.0 mi SSE 8.1 mph - 0.01 in   Overcast
9:53 PM 72.0 °F - 70.0 °F 93% 29.99 in 9.0 mi SSE 6.9 mph - N/A   Overcast
10:38 PM 70.0 °F - 69.1 °F 97% 30.01 in 7.0 mi SSE 3.5 mph - N/A   Partly Cloudy
10:53 PM 71.1 °F - 69.1 °F 93% 29.99 in 7.0 mi SSE 5.8 mph - N/A   Mostly Cloudy
11:23 PM 70.0 °F - 69.1 °F 97% 29.99 in 8.0 mi SE 4.6 mph - N/A   Scattered Clouds
11:46 PM 71.1 °F - 69.1 °F 93% 29.99 in 2.5 mi SE 5.8 mph - N/A   Mostly Cloudy
11:53 PM 71.1 °F - 69.1 °F 93% 29.97 in 3.0 mi SE 6.9 mph - N/A   Mostly Cloudy